This demonstration page uses our WeatherBlox Daily Observations layout. Learn more.

40.92945, -100.16068

Hourly Observations for August 19, 2019

Temp ( °F °C ) Dew Point ( °F °C ) Humidity (%) Winds ( mph kmh ) Pressure ( in mb ) Visibility ( mi km ) Precip ( " mm )
12:15 am 00:15 Clear 65 18.5 64 18 97 97 E 7 11 29.94 1014 10 16.09344 0 0
12:35 am 00:35 Clear 65 18.2 64 18 99 99 ESE 8 13 29.94 1014 10 16.09344 0 0
12:55 am 00:55 Clear 65 18.1 64 17.8 98 98 ESE 8 13 29.94 1014 10 16.09344 0 0
1:15 am 01:15 Clear 65 18.1 64 17.8 98 98 ESE 9 15 29.94 1014 7 11.265408 0 0
1:35 am 01:35 Clear 64 18 64 17.7 98 98 ESE 8 13 29.94 1014 7 11.265408 0 0
1:55 am 01:55 Partly Cloudy 64 18 64 17.5 97 97 E 7 11 29.94 1014 10 16.09344 0 0
2:15 am 02:15 Partly Cloudy 64 17.7 64 17.5 99 99 E 5 7 29.94 1014 10 16.09344 0 0
2:35 am 02:35 Clear with Mist and Fog 63 17.2 63 17.1 99 99 E 5 7 29.94 1014 5 8.04672 0 0
2:55 am 02:55 Clear with Mist and Fog 63 17 63 17 100 100 E 5 7 29.94 1014 5 8.04672 0 0
3:15 am 03:15 Clear 63 17.1 63 17 99 99 ESE 6 9 29.94 1014 7 11.265408 0 0
3:35 am 03:35 Clear 63 17.1 63 17 99 99 ESE 5 7 29.94 1014 7 11.265408 0 0
3:55 am 03:55 Clear 63 17.3 63 17 98 98 ESE 7 11 29.94 1014 10 16.09344 0 0
4:15 am 04:15 Clear 63 17.1 62 16.8 98 98 ESE 6 9 29.94 1014 7 11.265408 0 0
4:35 am 04:35 Clear 63 17 62 16.7 98 98 ESE 6 9 29.94 1014 7 11.265408 0 0
4:55 am 04:55 Clear 63 17 62 16.7 98 98 ESE 7 11 29.94 1014 7 11.265408 0 0
5:15 am 05:15 Clear 63 17 62 16.7 98 98 ESE 6 9 29.94 1014 7 11.265408 0 0
5:35 am 05:35 Clear 63 17 62 16.7 98 98 SE 6 9 29.94 1014 7 11.265408 0 0
5:55 am 05:55 Clear 63 17 62 16.7 98 98 SE 7 11 29.94 1014 7 11.265408 0 0
6:15 am 06:15 Clear 63 17 62 16.6 98 98 ESE 6 9 29.94 1014 7 11.265408 0 0
6:35 am 06:35 Clear 63 17 62 16.6 98 98 SE 6 9 29.94 1014 7 11.265408 0 0
6:55 am 06:55 Sunny 63 17 62 16.7 98 98 SE 8 13 29.97 1015 7 11.265408 0 0
7:15 am 07:15 Sunny 63 17.1 62 16.7 98 98 SE 7 11 29.97 1015 7 11.265408 0 0
7:35 am 07:35 Sunny 63 17.3 62 16.8 97 97 SE 7 11 29.97 1015 7 11.265408 0 0
7:55 am 07:55 Partly Cloudy 64 17.7 63 17 96 96 SE 5 7 29.94 1014 10 16.09344 0 0
8:15 am 08:15 Sunny 65 18.1 63 17.2 95 95 SE 7 11 29.94 1014 7 11.265408 0 0
8:35 am 08:35 Sunny 65 18.5 64 17.5 94 94 SE 10 17 29.94 1014 10 16.09344 0 0
8:55 am 08:55 Sunny 67 19.3 64 18 92 92 ESE 8 13 29.94 1014 10 16.09344 0 0
9:15 am 09:15 Sunny 68 20.1 65 18.6 91 91 SE 10 17 29.91 1013 10 16.09344 0 0
9:35 am 09:35 Sunny 69 20.6 66 18.9 90 90 SE 8 13 29.91 1013 10 16.09344 0 0
9:55 am 09:55 Sunny 71 21.5 67 19.5 88 88 SE 10 17 29.91 1013 10 16.09344 0 0
10:15 am 10:15 Partly Cloudy 72 22.3 69 20.3 89 89 SE 10 17 29.91 1013 10 16.09344 0 0
10:35 am 10:35 Partly Cloudy 74 23.4 70 20.9 86 86 SE 10 17 29.88 1012 10 16.09344 0 0
10:55 am 10:55 Sunny 76 24.2 71 21.5 85 85 SSE 9 15 29.88 1012 10 16.09344 0 0
11:15 am 11:15 Mostly Cloudy 77 24.9 72 22 84 84 SSE 9 15 29.88 1012 10 16.09344 0 0
11:35 am 11:35 Cloudy 78 25.5 73 22.6 84 84 SSE 13 20 29.88 1012 10 16.09344 0 0
11:55 am 11:55 Cloudy 79 25.9 73 22.8 83 83 SSE 13 20 29.88 1012 10 16.09344 0 0
12:15 pm 12:15 Cloudy 80 26.5 74 23.4 83 83 SSE 14 22 29.88 1012 10 16.09344 0 0
12:35 pm 12:35 Cloudy 81 27 75 23.7 82 82 SSE 18 30 29.83 1010 10 16.09344 0 0
12:55 pm 12:55 Mostly Cloudy 82 27.5 75 23.8 80 80 SSE 16 26 29.83 1010 10 16.09344 0 0
1:15 pm 13:15 Mostly Cloudy 81 27.3 74 23.6 80 80 SSE 17 28 29.83 1010 10 16.09344 0 0
1:35 pm 13:35 Mostly Cloudy 81 27.2 75 23.8 82 82 SE 14 22 29.83 1010 10 16.09344 0 0
1:55 pm 13:55 Cloudy 82 27.8 76 24.2 81 81 SSE 13 20 29.83 1010 10 16.09344 0 0
2:15 pm 14:15 Mostly Cloudy 85 29.4 77 25.2 78 78 S 16 26 29.83 1010 10 16.09344 0 0
2:35 pm 14:35 Mostly Cloudy 85 29.2 77 24.8 77 77 S 14 22 29.83 1010 10 16.09344 0 0
2:55 pm 14:55 Cloudy 85 29.5 77 25 77 77 SSE 12 19 29.8 1009 10 16.09344 0 0
3:15 pm 15:15 Mostly Cloudy 86 30.2 77 25.1 74 74 SSE 15 24 29.77 1008 10 16.09344 0 0
3:35 pm 15:35 Partly Cloudy 86 30.1 77 24.8 73 73 SSE 12 19 29.77 1008 10 16.09344 0 0
3:55 pm 15:55 Partly Cloudy 86 30.2 76 24.7 72 72 SE 14 22 29.77 1008 10 16.09344 0 0
4:15 pm 16:15 Sunny 87 30.4 77 25 73 73 SSE 10 17 29.74 1007 10 16.09344 0 0
4:35 pm 16:35 Partly Cloudy 86 29.9 76 24.5 73 73 SE 13 20 29.74 1007 10 16.09344 0 0
4:55 pm 16:55 Partly Cloudy 87 30.7 77 24.9 71 71 SSE 13 20 29.74 1007 10 16.09344 0 0
5:15 pm 17:15 Partly Cloudy 88 30.9 77 25 71 71 SSE 10 17 29.74 1007 10 16.09344 0 0
5:35 pm 17:35 Partly Cloudy 86 30.2 76 24.7 72 72 SSE 12 19 29.74 1007 10 16.09344 0 0
5:55 pm 17:55 Mostly Cloudy 87 30.8 77 25 71 71 SSE 8 13 29.74 1007 10 16.09344 0 0
6:15 pm 18:15 Partly Cloudy 87 30.7 76 24.5 70 70 S 12 19 29.74 1007 10 16.09344 0 0
6:35 pm 18:35 Sunny 87 30.5 76 24.5 70 70 S 7 11 29.74 1007 10 16.09344 0 0
6:55 pm 18:55 Partly Cloudy 87 30.3 76 24.3 70 70 S 8 13 29.74 1007 10 16.09344 0 0
7:15 pm 19:15 Partly Cloudy 85 29.6 77 24.9 76 76 S 3 6 29.77 1008 10 16.09344 0 0
7:35 pm 19:35 Sunny 85 29.5 77 24.9 76 76 SSE 3 6 29.77 1008 7 11.265408 0 0
7:55 pm 19:55 Sunny 84 28.7 77 24.9 80 80 SSE 5 7 29.77 1008 10 16.09344 0 0
8:15 pm 20:15 Sunny 82 27.9 76 24.5 82 82 Calm 29.8 1009 10 16.09344 0 0
8:35 pm 20:35 Clear 79 26.2 76 24.5 90 90 Calm 29.83 1010 10 16.09344 0 0
8:55 pm 20:55 Clear 78 25.5 75 24.1 92 92 ESE 5 7 29.83 1010 10 16.09344 0 0
9:15 pm 21:15 Clear 79 26.1 76 24.4 90 90 SE 6 9 29.77 1008 10 16.09344 0 0
9:35 pm 21:35 Clear 80 26.4 75 24.1 87 87 SE 7 11 29.8 1009 10 16.09344 0 0
9:55 pm 21:55 Clear 80 26.4 75 24.1 87 87 ESE 6 9 29.8 1009 10 16.09344 0 0
10:15 pm 22:15 Clear 79 26 75 24 89 89 ESE 5 7 29.83 1010 7 11.265408 0 0
10:35 pm 22:35 Clear 76 24.3 75 23.8 97 97 NNE 6 9 29.83 1010 7 11.265408 0 0
10:50 pm 22:50 Clear with Mist and Fog 75 23.9 74 23.6 98 98 NE 3 6 29.85 1011 5 8.04672 0 0
11:15 pm 23:15 Clear with Mist and Fog 74 23.3 74 23.3 100 100 ENE 3 6 29.85 1011 4 6.437376 0 0
11:35 pm 23:35 Clear with Mist and Fog 74 23.1 74 23.1 100 100 ENE 5 7 29.83 1010 5 8.04672 0 0
11:55 pm 23:55 Clear 74 23.5 74 23.3 99 99 E 5 7 29.83 1010 7 11.265408 0 0

Powered by AerisWeather